Location: Eldred Sherwood Park Lake Dam
(42.9416°N, 93.5655°W)
Time: 08:03:25
(UTC+00:00)

Tiros 1 - Pass Details

Date: 05 November 2024
Orbit: 622 x 653 km, 48.4° (Epoch: 06 December)

Event Time Altitude Azimuth Distance (km) Brightness Sun altitude
Rises 02:00:16 0° 222° (SW) 2,951 10.9 -33.0°
Reaches altitude 10° 02:02:40 10° 216° (SW) 2,047 10.0 -33.4°
Enters shadow 02:02:40 10° 216° (SW) 2,047 10.0 -33.4°
